DW3414 Weather Reports


Display with metric or nautical units.
time (UTC)temp
F
wind
direction
speed
MPH
gust
MPH
rain 1hr
in
rain 24hr
in
rain mn
in
humidity
%
barometer
mb
20260510005054 64 171 0.0 0.0 0.00 0.00 0.00 62 1006.8
20260510002053 68 171 0.0 0.0 0.00 0.00 0.00 57 1006.0
20260509235124 72 171 0.0 7.0 0.00 0.00 0.00 49 1005.9
20260509232053 73 156 0.0 9.0 0.00 0.00 0.00 46 1005.8
20260509222054 74 154 2.0 9.0 0.00 0.00 0.00 45 1005.6
20260509215123 73 153 2.0 13.0 0.00 0.00 0.00 45 1005.4
20260509212053 74 151 1.0 9.0 0.00 0.00 0.00 44 1005.4
20260509205053 74 139 3.0 15.0 0.00 0.00 0.00 43 1005.4
20260509202053 76 163 3.0 19.0 0.00 0.00 0.00 43 1005.0
20260509195054 75 155 4.0 16.0 0.00 0.00 0.00 41 1005.3
20260509192054 73 153 3.0 16.0 0.00 0.00 0.00 44 1005.6
20260509185053 72 173 8.0 13.0 0.00 0.00 0.00 46 1006.0
20260509182054 71 150 3.0 12.0 0.00 0.00 0.00 48 1006.4
20260509175053 70 162 4.0 11.0 0.00 0.00 0.00 51 1007.0
20260509162053 69 163 3.0 14.0 0.00 0.00 0.00 53 1007.3
20260509155053 69 155 5.0 12.0 0.00 0.00 0.00 55 1007.4
20260509152053 69 135 8.0 10.0 0.00 0.00 0.00 53 1007.5
20260509145053 69 119 5.0 11.0 0.00 0.00 0.00 54 1007.6
20260509142053 66 103 8.0 12.0 0.00 0.00 0.00 58 1007.8
20260509135054 63 141 3.0 10.0 0.00 0.00 0.00 61 1008.3
20260509132053 61 116 8.0 11.0 0.00 0.00 0.00 61 1008.6
20260509122053 56 165 0.0 0.0 0.00 0.00 0.00 72 1008.5
20260509115053 55 165 0.0 0.0 0.00 0.00 0.00 72 1008.5
20260509112053 54 165 0.0 0.0 0.00 0.00 0.00 70 1008.7
20260509105053 54 167 0.0 0.0 0.00 0.00 0.00 71 1008.7
20260509102053 54 167 0.0 0.0 0.00 0.00 0.00 68 1008.8
20260509092053 55 167 0.0 0.0 0.00 0.00 0.00 62 1009.2
20260509085123 55 167 0.0 0.0 0.00 0.00 0.00 62 1009.2
20260509075053 54 167 0.0 0.0 0.00 0.00 0.00 66 1009.3
20260509065053 53 162 0.0 0.0 0.00 0.00 0.00 72 1009.8
20260509062053 52 161 0.0 0.0 0.00 0.00 0.00 72 1010.0
20260509055054 52 160 0.0 0.0 0.00 0.00 0.00 73 1010.1
20260509052053 52 134 0.0 0.0 0.00 0.00 0.00 72 1010.2
20260509045053 54 134 0.0 0.0 0.00 0.00 0.00 68 1010.3
20260509042053 57 134 0.0 8.0 0.00 0.00 0.00 57 1010.2
20260509035123 59 105 4.0 11.0 0.00 0.00 0.00 53 1010.4
20260509032053 59 123 9.0 9.0 0.00 0.00 0.00 52 1010.3
20260509025123 59 104 0.0 0.0 0.00 0.00 0.00 53 1010.4
20260509022053 59 108 0.0 0.0 0.00 0.00 0.00 53 1010.3
20260509012053 60 128 0.0 0.0 0.00 0.00 0.00 54 1009.9